This is the latest recevied weather packets stored in our database for station/object W3JGB. If no packets are shown the sender has not sent any weather packets the latest 10 day(s).
| Time | Temp. | Humidity | Pressure | Rain* | Wind** | Luminosity | Snow |
|---|---|---|---|---|---|---|---|
| 1778202576 | 10.56° C | 75% | 1008.8 hPa | 0 mm | - | 0 W/m² | - |
| 1778202273 | 10.56° C | 74% | 1008.6 hPa | 0 mm | - | 0 W/m² | - |
| 1778201970 | 11.11° C | 73% | 1008.7 hPa | 0 mm | - | 0 W/m² | - |
| 1778201667 | 11.11° C | 71% | 1008.7 hPa | 0 mm | - | 0 W/m² | - |
| 1778201363 | 11.67° C | 71% | 1008.5 hPa | 0 mm | - | 0 W/m² | - |
| 1778201060 | 11.67° C | 67% | 1008.5 hPa | 0 mm | - | 0 W/m² | - |
| 1778200756 | 11.67° C | 65% | 1008.5 hPa | 0 mm | - | 0 W/m² | - |
| 1778200453 | 12.22° C | 64% | 1008.5 hPa | 0 mm | - | 0 W/m² | - |
| 1778200150 | 12.22° C | 56% | 1008.5 hPa | 0 mm | - | 0 W/m² | - |
| 1778199847 | 12.78° C | 53% | 1008.4 hPa | 0 mm | - | 0 W/m² | - |
| 1778199542 | 13.33° C | 50% | 1008.2 hPa | 0 mm | - | 0 W/m² | - |
| 1778199239 | 13.33° C | 53% | 1008.2 hPa | 0 mm | - | 0 W/m² | - |
| 1778198935 | 13.33° C | 49% | 1008.4 hPa | 0 mm | - | 1 W/m² | - |
| 1778198632 | 13.89° C | 48% | 1008.2 hPa | 0 mm | - | 1 W/m² | - |
| 1778198328 | 13.89° C | 49% | 1008.2 hPa | 0 mm | - | 2 W/m² | - |
| 1778198026 | 13.89° C | 46% | 1008.2 hPa | 0 mm | - | 5 W/m² | - |
| 1778197723 | 14.44° C | 46% | 1008 hPa | 0 mm | - | 6 W/m² | - |
| 1778197419 | 14.44° C | 47% | 1007.9 hPa | 0 mm | - | 9 W/m² | - |
| 1778197116 | 14.44° C | 47% | 1007.8 hPa | 0 mm | - | 12 W/m² | - |
| 1778196814 | 15° C | 44% | 1007.8 hPa | 0 mm | - | 11 W/m² | - |
| 1778196512 | 15° C | 43% | 1008 hPa | 0 mm | - | 9 W/m² | - |
| 1778196208 | 15° C | 42% | 1008 hPa | 0 mm | - | 10 W/m² | - |
| 1778195905 | 15° C | 47% | 1007.6 hPa | 0 mm | - | 20 W/m² | - |
| 1778195602 | 15° C | 42% | 1007.6 hPa | 0 mm | - | 26 W/m² | - |
| 1778195298 | 15.56° C | 41% | 1007.8 hPa | 0 mm | - | 33 W/m² | - |
* Rain latest hour (hover to see other rain measurements)
** Current wind speed in m/s (hover to see current wind gust speed)